Location: College Rock
(37.2713°N, 119.1740°W)
Time: 04:02:54
(UTC+00:00)

Cosmos 1726 Rocket - Pass Details

Date: 29 October 2020
Orbit: 604 x 628 km, 82.5° (Epoch: 23 November)

Event Time Altitude Azimuth Distance (km) Brightness Sun altitude
Rises 12:57:25 0° 348° (NNW) 2,920 6.8 -16.7°
Reaches altitude 10° 12:59:41 10° 344° (NNW) 2,011 6.0 -16.3°
Maximum altitude 13:04:02 55° 267° (W) 754 3.6 -15.4°
Drops below altitude 10° 13:08:22 10° 189° (S) 1,997 6.1 -14.6°
Sets 13:10:37 0° 185° (S) 2,899 7.0 -14.1°
